DB6TOM Weather Reports


time (UTC)temp
C
wind
direction
speed
KPH
gust
KPH
rain 1hr
cm
rain 24hr
cm
rain mn
cm
humidity
%
barometer
mb
20260507130835 8 202 0.0 6.4 0.00 0.00 0.00 96 1012.4
20260507130112 8 359 1.6 4.8 0.00 0.00 0.00 95 1012.3
20260507125610 8 21 3.2 4.8 0.00 0.00 0.00 95 1012.2
20260507125111 8 120 3.2 8.0 0.00 0.00 0.00 94 1012.1
20260507124609 8 77 0.0 8.0 0.00 0.00 0.00 93 1012.3
20260507124111 8 62 8.0 8.0 0.00 0.00 0.00 94 1012.1
20260507123608 8 198 3.2 9.7 0.00 0.00 0.00 94 1012.0
20260507123330 8 113 1.6 9.7 0.00 0.00 0.00 95 1011.9
20260507122607 8 74 4.8 8.0 0.00 0.00 0.00 95 1011.9
20260507122107 8 79 3.2 8.0 0.00 0.00 0.00 96 1011.8
20260507121605 8 82 0.0 9.7 0.00 0.00 0.00 95 1011.8
20260507121106 8 89 3.2 9.7 0.00 0.00 0.00 95 1011.7
20260507120829 8 129 1.6 9.7 0.00 0.00 0.00 96 1011.8
20260507120105 8 130 3.2 9.7 0.00 0.00 0.00 96 1011.6
20260507115603 8 50 0.0 8.0 0.00 0.00 0.00 95 1011.4
20260507115105 8 74 0.0 6.4 0.00 0.00 0.00 96 1011.4
20260507114603 8 100 3.2 6.4 0.00 0.00 0.00 96 1011.7
20260507114103 8 147 3.2 9.7 0.00 0.00 0.00 96 1011.5
20260507113601 8 89 3.2 11.3 0.00 0.00 0.00 96 1011.4
20260507113103 8 59 3.2 11.3 0.00 0.00 0.00 96 1011.5
20260507112601 8 77 1.6 9.7 0.00 0.00 0.00 95 1011.5
20260507112101 8 76 4.8 9.7 0.00 0.00 0.00 96 1011.2
20260507111559 8 294 3.2 9.7 0.00 0.00 0.00 96 1011.1
20260507111103 8 105 4.8 8.0 0.00 0.00 0.00 96 1011.1
20260507110819 8 93 3.2 8.0 0.00 0.00 0.00 96 1011.0
20260507105556 8 110 0.0 12.9 0.00 0.00 0.00 97 1011.4
20260507105058 8 151 0.0 12.9 0.00 0.00 0.00 97 1011.0
20260507104555 8 31 0.0 4.8 0.00 0.00 0.00 97 1010.8
20260507104056 8 66 4.8 16.1 0.00 0.00 0.00 97 1011.1
20260507103555 8 147 3.2 16.1 0.00 0.00 0.00 96 1010.8
20260507103055 8 95 3.2 9.7 0.00 0.00 0.00 97 1010.7
20260507102554 8 107 3.2 9.7 0.00 0.00 0.00 97 1010.6
20260507102316 8 83 4.8 14.5 0.00 0.00 0.00 97 1010.7
20260507101553 8 67 4.8 14.5 0.00 0.00 0.00 97 1010.6
20260507101052 8 106 3.2 8.0 0.00 0.00 0.00 98 1010.2
20260507100551 8 95 3.2 14.5 0.00 0.00 0.00 98 1010.3
20260507100052 8 160 4.8 14.5 0.00 0.00 0.00 98 1010.2
20260507095549 8 115 6.4 11.3 0.00 0.00 0.00 97 1010.3
20260507095054 8 69 4.8 11.3 0.00 0.00 0.00 97 1010.1
20260507094548 8 46 3.2 11.3 0.00 0.00 0.00 97 1010.1
20260507094053 8 131 11.3 11.3 0.00 0.00 0.00 97 1010.3
20260507093547 8 53 4.8 11.3 0.00 0.00 0.00 97 1009.9
20260507093051 8 82 1.6 20.9 0.00 0.00 0.00 97 1010.0
20260507092809 8 71 6.4 20.9 0.00 0.00 0.00 97 1009.7
20260507092048 8 111 3.2 16.1 0.00 0.00 0.00 96 1009.7
20260507091545 8 79 6.4 16.1 0.00 0.00 0.00 96 1009.8
20260507091311 8 73 3.2 14.5 0.00 0.00 0.00 96 1009.6
20260507090545 8 135 3.2 14.5 0.00 0.00 0.00 96 1009.5
20260507090048 8 39 3.2 14.5 0.00 0.00 0.00 96 1009.5
20260507085804 8 97 6.4 14.5 0.00 0.00 0.00 95 1009.2
20260507085044 8 117 8.0 14.5 0.00 0.00 0.00 96 1009.4
20260507084542 9 42 12.9 14.5 0.00 0.00 0.00 96 1009.3
20260507084042 8 118 6.4 12.9 0.00 0.00 0.00 96 1008.9
20260507083541 8 152 3.2 11.3 0.00 0.00 0.00 96 1009.0
20260507083309 8 74 3.2 19.3 0.00 0.00 0.00 96 1009.2
20260507082539 8 62 4.8 19.3 0.00 0.00 0.00 95 1009.1
20260507082041 8 19 1.6 17.7 0.00 0.00 0.00 95 1009.2
20260507081538 8 130 12.9 16.1 0.00 0.00 0.00 96 1008.9
20260507081043 8 98 4.8 11.3 0.00 0.00 0.00 96 1008.9
20260507080537 8 110 6.4 14.5 0.00 0.00 0.00 96 1008.9
20260507080302 8 64 11.3 17.7 0.00 0.00 0.00 96 1008.9
20260507075536 8 88 4.8 17.7 0.00 0.00 0.00 96 1008.9
20260507075037 8 111 3.2 12.9 0.00 0.00 0.00 97 1008.9
20260507074535 8 62 4.8 14.5 0.00 0.00 0.00 96 1008.9
20260507073534 8 72 4.8 17.7 0.00 0.00 0.00 96 1008.7
20260507073035 8 52 8.0 14.5 0.00 0.00 0.00 97 1008.6
20260507072753 8 65 6.4 14.5 0.00 0.00 0.00 97 1008.6
20260507072033 8 144 6.4 11.3 0.00 0.00 0.00 97 1008.5
20260507071750 8 81 6.4 12.9 0.00 0.00 0.00 97 1008.4
20260507071034 8 108 4.8 12.9 0.00 0.00 0.00 97 1008.5
20260507070749 8 82 8.0 14.5 0.00 0.00 0.00 97 1008.2
20260507070255 8 84 8.0 14.5 0.00 0.00 0.00 98 1008.5
20260507065529 8 130 4.8 12.9 0.00 0.00 0.00 98 1008.5
20260507065033 8 69 4.8 16.1 0.00 0.00 0.00 97 1008.3
20260507064528 8 117 6.4 16.1 0.00 0.00 0.00 98 1008.4
20260507064035 8 71 6.4 12.9 0.00 0.00 0.00 98 1008.3
20260507063527 8 84 4.8 8.0 0.00 0.00 0.00 98 1008.3
20260507063033 8 120 6.4 12.9 0.00 0.00 0.00 98 1008.3
20260507062526 8 106 4.8 12.9 0.00 0.00 0.00 98 1008.3
20260507062028 8 125 6.4 9.7 0.00 0.00 0.00 98 1008.2
20260507061522 8 96 6.4 9.7 0.00 0.00 0.00 98 1008.0
20260507061303 8 99 6.4 9.7 0.00 0.00 0.00 98 1008.0
20260507060521 8 120 6.4 9.7 0.00 0.00 0.00 98 1008.0
20260507060029 8 89 4.8 9.7 0.00 0.00 0.00 98 1007.7
20260507055523 8 110 3.2 11.3 0.00 0.00 0.00 98 1008.0
20260507055027 8 111 8.0 11.3 0.00 0.00 0.00 98 1007.8
20260507054518 8 124 8.0 9.7 0.00 0.00 0.00 98 1007.9
20260507054024 8 112 3.2 6.4 0.00 0.00 0.00 98 1007.7
20260507053517 8 106 1.6 6.4 0.00 0.00 0.00 98 1007.5
20260507053030 8 88 3.2 11.3 0.00 0.00 0.00 98 1007.5
20260507052516 8 68 8.0 11.3 0.00 0.00 0.00 98 1007.5
20260507052028 8 112 3.2 11.3 0.00 0.00 0.00 98 1007.5
20260507051735 8 123 4.8 11.3 0.00 0.00 0.00 98 1007.4
20260507051249 8 119 6.4 11.3 0.00 0.00 0.00 99 1007.5
20260507050514 8 120 4.8 11.3 0.00 0.00 0.00 99 1007.4
20260507050027 8 116 4.8 11.3 0.00 0.00 0.00 99 1007.2
20260507045738 9 42 6.4 11.3 0.00 0.00 0.00 99 1007.2
20260507045021 9 136 4.8 9.7 0.00 0.00 0.00 99 1007.2
20260507044512 9 91 4.8 8.0 0.00 0.00 0.00 99 1007.1
20260507044013 9 160 6.4 8.0 0.00 0.00 0.00 99 1006.8
20260507043510 9 142 6.4 9.7 0.00 0.00 0.00 99 1006.9
20260507043012 9 157 6.4 9.7 0.00 0.00 0.00 99 1006.8
20260507042513 9 91 6.4 9.7 0.00 0.00 0.00 99 1006.9
20260507042010 9 116 3.2 9.7 0.00 0.00 0.00 99 1006.7
20260507041732 9 126 3.2 9.7 0.00 0.00 0.00 99 1006.7
20260507041009 9 94 3.2 9.7 0.00 0.00 0.00 99 1006.8
20260507040510 9 104 6.4 8.0 0.00 0.00 0.00 99 1006.8
20260507040008 9 137 4.8 8.0 0.00 0.00 0.00 99 1006.7
20260507035506 9 137 4.8 6.4 0.00 0.00 0.00 99 1006.8
20260507035007 9 87 3.2 8.0 0.00 0.00 0.00 99 1006.8
20260507034728 9 124 3.2 8.0 0.00 0.00 0.00 98 1006.7
20260507034006 9 109 3.2 6.4 0.00 0.00 0.00 98 1006.8
20260507033504 9 121 3.2 6.4 0.00 0.00 0.00 99 1006.8
20260507033005 9 123 3.2 9.7 0.00 0.00 0.00 99 1006.8
20260507032503 9 141 6.4 9.7 0.00 0.00 0.00 99 1006.5
20260507032227 9 131 3.2 9.7 0.00 0.00 0.00 99 1006.5
20260507031502 9 123 6.4 12.9 0.00 0.00 0.00 99 1006.5
20260507031221 9 121 9.7 12.9 0.00 0.00 0.00 99 1006.6
20260507030501 9 131 6.4 12.9 0.00 0.00 0.00 99 1006.4
20260507030001 9 131 6.4 12.9 0.00 0.00 0.00 98 1006.6
20260507025500 9 120 6.4 6.4 0.00 0.00 0.00 98 1006.4
20260507025000 9 100 3.2 9.7 0.00 0.00 0.00 98 1006.2
20260507024459 9 150 4.8 9.7 0.00 0.00 0.00 98 1006.3
20260507023959 9 140 6.4 8.0 0.00 0.00 0.00 98 1006.4
20260507023723 9 127 4.8 9.7 0.00 0.00 0.00 98 1006.5
20260507022958 9 85 3.2 9.7 0.00 0.00 0.00 98 1006.4
20260507022456 9 154 3.2 9.7 0.00 0.00 0.00 98 1006.4
20260507021957 9 136 8.0 9.7 0.00 0.00 0.00 98 1006.5
20260507021455 9 212 3.2 9.7 0.00 0.00 0.00 99 1006.4
20260507020955 9 118 8.0 9.7 0.00 0.00 0.00 98 1006.3
20260507020453 9 232 3.2 6.4 0.00 0.00 0.00 98 1006.5
20260507015955 9 130 4.8 8.0 0.00 0.00 0.00 98 1006.4
20260507015453 9 85 4.8 8.0 0.00 0.00 0.00 98 1006.3
20260507014953 9 168 3.2 8.0 0.00 0.00 0.00 98 1006.2
20260507014451 9 161 3.2 8.0 0.00 0.00 0.00 98 1006.5
20260507013952 9 92 4.8 8.0 0.00 0.00 0.00 98 1006.4
20260507013451 9 176 3.2 8.0 0.00 0.00 0.00 98 1006.4
20260507012951 9 147 4.8 8.0 0.00 0.00 0.00 98 1006.3
20260507012711 9 165 0.0 8.0 0.00 0.00 0.00 98 1006.4
20260507011950 9 7 6.4 8.0 0.00 0.00 0.00 98 1006.4
20260507011448 9 200 4.8 9.7 0.00 0.00 0.00 98 1006.2
20260507011215 9 253 3.2 9.7 0.00 0.00 0.00 98 1006.4
20260507010447 9 150 4.8 9.7 0.00 0.00 0.00 98 1006.4
20260507005947 9 127 3.2 9.7 0.00 0.00 0.00 98 1006.3
20260507005445 9 194 3.2 8.0 0.00 0.00 0.00 98 1006.3
20260507004947 9 125 1.6 8.0 0.00 0.00 0.00 98 1006.3
20260507004444 9 50 8.0 8.0 0.00 0.00 0.00 98 1006.4
20260507003443 9 150 3.2 9.7 0.00 0.00 0.00 98 1006.4
20260507002945 9 165 4.8 9.7 0.00 0.00 0.00 98 1006.3
20260507002442 9 155 0.0 1.6 0.00 0.00 0.00 98 1006.4
20260507001943 9 160 1.6 1.6 0.00 0.00 0.00 98 1006.4
20260507001441 9 161 0.0 1.6 0.00 0.00 0.00 97 1006.3
20260507000942 9 142 0.0 3.2 0.00 0.00 0.00 97 1006.1
20260507000442 9 154 0.0 3.2 0.00 0.00 0.00 97 1006.2
20260506235941 9 166 1.6 3.2 0.00 0.00 0.00 97 1006.1
20260506235439 9 152 0.0 1.6 0.00 0.00 0.00 97 1006.0
20260506234940 9 149 0.0 1.6 0.00 0.00 0.00 97 1006.0
20260506233938 10 155 0.0 3.2 0.00 0.00 0.00 97 1005.9
20260506233436 10 144 0.0 3.2 0.00 0.00 0.00 96 1005.8
20260506232937 10 329 0.0 3.2 0.00 0.00 0.00 96 1005.9
20260506232436 10 124 0.0 3.2 0.00 0.00 0.00 95 1005.7
20260506231936 10 150 0.0 3.2 0.00 0.00 0.00 95 1005.7
20260506231434 10 157 1.6 3.2 0.00 0.00 0.00 95 1005.6
20260506230935 10 156 3.2 4.8 0.00 0.00 0.00 94 1005.7
20260506230433 10 148 3.2 8.0 0.00 0.00 0.00 94 1005.5
20260506230153 10 111 6.4 6.4 0.00 0.00 0.00 95 1005.4
20260506225654 10 97 3.2 6.4 0.00 0.00 0.00 94 1005.4
20260506224932 10 95 3.2 6.4 0.00 0.00 0.00 94 1005.3
20260506224434 10 82 1.6 9.7 0.00 0.00 0.00 94 1005.5
20260506224155 10 144 4.8 9.7 0.00 0.00 0.00 94 1005.5
20260506222930 10 168 1.6 8.0 0.00 0.00 0.00 93 1005.5
20260506222429 10 141 4.8 8.0 0.00 0.00 0.00 93 1005.3
20260506221929 10 118 6.4 8.0 0.00 0.00 0.00 93 1005.4
20260506221427 10 120 6.4 11.3 0.00 0.00 0.00 93 1005.6
20260506220928 10 122 8.0 11.3 0.00 0.00 0.00 93 1005.3
20260506220426 10 123 6.4 9.7 0.00 0.00 0.00 94 1005.4
20260506215927 10 139 4.8 9.7 0.00 0.00 0.00 95 1005.5
20260506215425 10 117 6.4 11.3 0.00 0.00 0.00 95 1005.7
20260506215146 10 139 4.8 11.3 0.00 0.00 0.00 95 1005.4
20260506214645 10 124 6.4 12.9 0.00 0.00 0.00 95 1005.5
20260506213423 10 137 4.8 8.0 0.00 0.00 0.00 96 1005.6
20260506212927 10 151 3.2 4.8 0.00 0.00 0.00 96 1005.7
20260506212644 10 168 3.2 6.4 0.00 0.00 0.00 95 1005.4
20260506211923 10 107 1.6 9.7 0.00 0.00 0.00 95 1005.2
20260506211420 10 109 3.2 14.5 0.00 0.00 0.00 95 1005.2
20260506210924 10 127 14.5 14.5 0.00 0.00 0.00 94 1005.2
20260506210419 10 60 4.8 12.9 0.00 0.00 0.00 93 1005.3
20260506205921 10 116 8.0 14.5 0.00 0.00 0.00 93 1005.2
20260506205418 10 126 14.5 14.5 0.00 0.00 0.00 94 1005.6
20260506204417 10 95 4.8 14.5 0.00 0.00 0.00 94 1005.2
20260506203920 10 157 1.6 17.7 0.00 0.00 0.00 94 1005.4
20260506202918 11 72 6.4 9.7 0.00 0.00 0.00 93 1005.6
20260506202641 11 341 3.2 6.4 0.00 0.00 0.00 92 1005.8
20260506202133 11 348 3.2 4.8 0.00 0.00 0.00 91 1005.7
20260506201414 11 83 1.6 6.4 0.00 0.00 0.00 91 1005.5
20260506200917 12 49 3.2 8.0 0.00 0.00 0.00 91 1005.3
20260506200412 12 324 4.8 8.0 0.00 0.00 0.00 91 1005.3
20260506195916 12 351 4.8 6.4 0.00 0.00 0.00 92 1005.2
20260506195414 12 337 0.0 6.4 0.00 0.00 0.00 92 1005.1
20260506194410 12 103 0.0 6.4 0.00 0.00 0.00 90 1004.8
20260506193911 12 107 3.2 6.4 0.00 0.00 0.00 90 1004.7
20260506193632 12 101 3.2 4.8 0.00 0.00 0.00 89 1004.5
20260506193128 12 107 0.0 4.8 0.00 0.00 0.00 88 1004.4
20260506192408 12 119 1.6 6.4 0.00 0.00 0.00 87 1004.4
20260506191909 12 138 0.0 11.3 0.00 0.00 0.00 87 1004.5
20260506191407 12 142 3.2 11.3 0.00 0.00 0.00 87 1004.5
20260506190908 12 63 4.8 11.3 0.00 0.00 0.00 87 1004.3
20260506190406 12 111 4.8 9.7 0.00 0.00 0.00 87 1004.2
20260506185907 12 79 3.2 9.7 0.00 0.00 0.00 87 1003.9
20260506185405 12 103 3.2 9.7 0.00 0.00 0.00 87 1003.8
20260506184906 12 89 3.2 11.3 0.00 0.00 0.00 87 1003.8
20260506184404 12 98 3.2 11.3 0.00 0.00 0.00 86 1003.6
20260506183905 13 103 4.8 12.9 0.00 0.00 0.00 86 1003.6
20260506183402 13 116 9.7 12.9 0.00 0.00 0.00 85 1003.5
20260506182904 13 64 9.7 16.1 0.00 0.00 0.00 84 1003.4
20260506182401 13 113 6.4 16.1 0.00 0.00 0.00 84 1003.5
20260506182126 13 149 8.0 14.5 0.00 0.00 0.00 84 1003.6
20260506181400 13 126 3.2 14.5 0.00 0.00 0.00 84 1003.5
20260506180902 13 54 9.7 14.5 0.00 0.00 0.00 83 1003.6
20260506180359 13 110 6.4 14.5 0.00 0.00 0.00 82 1003.6
20260506175900 14 57 8.0 16.1 0.00 0.00 0.00 82 1003.5
20260506175358 14 47 3.2 16.1 0.00 0.00 0.00 81 1003.5
20260506174900 14 86 3.2 11.3 0.00 0.00 0.00 80 1003.3
20260506174357 15 61 6.4 11.3 0.00 0.00 0.00 79 1003.2
20260506173858 15 27 9.7 9.7 0.00 0.00 0.00 78 1003.4
20260506173359 15 74 8.0 9.7 0.00 0.00 0.00 75 1003.3
20260506172857 16 114 6.4 8.0 0.00 0.00 0.00 69 1003.2
20260506172354 17 117 1.6 3.2 0.00 0.00 0.00 62 1003.1
20260506172117 17 169 0.0 3.2 0.00 0.00 0.00 60 1003.1
20260506171356 17 156 0.0 3.2 0.00 0.00 0.00 60 1002.9
20260506171120 17 147 0.0 3.2 0.00 0.00 0.00 57 1002.9
20260506170355 18 328 0.0 3.2 0.00 0.00 0.00 54 1003.0
20260506165857 19 154 0.0 3.2 0.00 0.00 0.00 49 1003.1
20260506165354 19 108 3.2 3.2 0.00 0.00 0.00 46 1002.9
20260506164853 19 231 3.2 8.0 0.00 0.00 0.00 50 1002.8
20260506163851 19 167 3.2 4.8 0.00 0.00 0.00 46 1003.0
20260506163617 19 176 3.2 6.4 0.00 0.00 0.00 46 1002.9
20260506163108 19 161 1.6 6.4 0.00 0.00 0.00 49 1003.1
20260506162348 19 123 3.2 8.0 0.00 0.00 0.00 50 1003.0
20260506161849 18 121 3.2 8.0 0.00 0.00 0.00 51 1003.0
20260506161346 18 19 3.2 4.8 0.00 0.00 0.00 50 1003.1
20260506160848 18 175 1.6 6.4 0.00 0.00 0.00 49 1003.1
20260506160349 18 169 0.0 6.4 0.00 0.00 0.00 51 1003.0
20260506155846 18 241 1.6 4.8 0.00 0.00 0.00 51 1003.1
20260506155345 18 259 0.0 9.7 0.00 0.00 0.00 50 1003.3
20260506154845 18 164 3.2 9.7 0.00 0.00 0.00 51 1003.2
20260506154606 18 147 0.0 8.0 0.00 0.00 0.00 49 1003.2
20260506153844 18 182 1.6 8.0 0.00 0.00 0.00 50 1003.2
20260506153610 19 182 1.6 6.4 0.00 0.00 0.00 49 1003.4
20260506152843 19 159 3.2 9.7 0.00 0.00 0.00 48 1003.5
20260506152344 20 121 4.8 9.7 0.00 0.00 0.00 50 1003.5
20260506151339 18 359 4.8 6.4 0.00 0.00 0.00 54 1003.5
20260506150842 18 138 1.6 6.4 0.00 0.00 0.00 55 1003.6
20260506150339 18 152 3.2 4.8 0.00 0.00 0.00 54 1003.5
20260506145839 17 142 3.2 8.0 0.00 0.00 0.00 54 1003.6
20260506145338 18 117 0.0 9.7 0.00 0.00 0.00 56 1003.7
20260506145101 18 180 3.2 8.0 0.00 0.00 0.00 53 1003.6
20260506144336 18 22 0.0 6.4 0.00 0.00 0.00 54 1003.6
20260506144100 17 38 0.0 6.4 0.00 0.00 0.00 58 1003.8
20260506143336 17 322 0.0 4.8 0.00 0.00 0.00 56 1003.6
20260506142837 17 248 0.0 6.4 0.00 0.00 0.00 58 1003.6
20260506142334 17 311 3.2 6.4 0.00 0.00 0.00 57 1003.7
20260506141835 17 327 3.2 8.0 0.00 0.00 0.00 59 1003.7
20260506141333 18 316 4.8 9.7 0.00 0.00 0.00 59 1003.6
20260506140834 17 197 3.2 9.7 0.00 0.00 0.00 54 1003.5
20260506140332 18 293 3.2 6.4 0.00 0.00 0.00 55 1003.8
20260506135833 17 208 0.0 8.0 0.00 0.00 0.00 59 1003.8
20260506135330 18 269 0.0 8.0 0.00 0.00 0.00 57 1003.8
20260506134832 18 185 6.4 8.0 0.00 0.00 0.00 55 1003.8
20260506134332 18 259 3.2 6.4 0.00 0.00 0.00 56 1003.7
20260506133830 17 255 1.6 6.4 0.00 0.00 0.00 56 1003.7
20260506133552 18 141 0.0 9.7 0.00 0.00 0.00 57 1003.9
20260506133051 18 148 3.2 9.7 0.00 0.00 0.00 57 1003.6
20260506132327 18 200 0.0 4.8 0.00 0.00 0.00 54 1003.8
20260506132050 18 261 3.2 9.7 0.00 0.00 0.00 57 1004.1
20260506131329 18 178 1.6 9.7 0.00 0.00 0.00 55 1004.2